Date String (YYYY-MM-DD hh:mm:ss) UTC,Instrument flags,absolute air pressure of the measurement (hPa),sample flow rate (lpm),inlet stack bypass flow (lpm),air temperature of the measurement (°C),ambient temperature measured by the external sensor (°C),aerosol sample conditioner tube jacket temperature (°C),OPC LED temperature (°C),internal box temperature (°C),relative humidity of the measurement (%),span deviation,mass concentration of particles derived from Lorenz-Mie calculation of OPC scattering (μg/m³),mass concentration of particles derived from Lorenz-Mie calculation of OPC scattering (μg/m³),mass concentration of particles derived from Lorenz-Mie calculation of OPC scattering (μg/m³)
DateTimeUTC,F1_M11,P_M11,Q1_M11,Q2_M11,T1_M11,T2_M11,T3_M11,T4_M11,T5_M11,U1_M11,ZSPAN_M11,X0_M11,X2_M11,X1_M11
2023-07-23 22:00:00,SystemResetWarning,0833.5,5.00,000.00,028.5,026.2,000.0,036.7,030.1,18.9,0000.0,0009.66,0005.33,0004.93
2023-07-23 22:01:00,SystemResetWarning,0833.5,5.00,000.00,028.5,026.7,000.0,036.8,030.2,20.5,0000.0,0009.51,0005.32,0004.93
2023-07-23 22:02:00,SystemResetWarning,0833.6,5.00,000.00,028.6,027.1,000.0,036.8,030.3,19.7,0000.0,0009.51,0005.30,0004.93
2023-07-23 22:03:00,SystemResetWarning,0833.6,4.99,000.00,028.6,027.1,000.0,036.8,030.4,19.4,0000.0,0010.01,0005.29,0004.93
2023-07-23 22:04:00,SystemResetWarning,0833.6,4.99,000.00,028.6,025.7,000.0,036.7,030.2,19.5,0000.0,0010.12,0005.27,0004.92
2023-07-23 22:05:00,SystemResetWarning,0833.6,5.00,000.00,028.5,024.8,000.0,036.6,030.0,20.1,0000.0,0010.05,0005.24,0004.90
2023-07-23 22:06:00,SystemResetWarning,0833.6,5.01,000.00,028.5,025.1,000.0,036.6,030.0,21.2,0000.0,0009.52,0005.23,0004.88
2023-07-23 22:07:00,SystemResetWarning,0833.7,5.00,000.00,028.5,025.4,000.0,036.7,029.8,20.4,0000.0,0009.43,0005.21,0004.85
2023-07-23 22:08:00,SystemResetWarning,0833.7,4.99,000.00,028.5,025.9,000.0,036.7,030.0,21.0,0000.0,0009.61,0005.22,0004.82
2023-07-23 22:09:00,SystemResetWarning,0833.6,5.00,000.00,028.5,026.4,000.0,036.8,030.1,20.9,0000.0,0010.41,0005.19,0004.79
2023-07-23 22:10:00,SystemResetWarning,0833.7,5.01,000.00,028.5,026.8,000.0,036.8,030.2,21.3,0000.0,0010.59,0005.20,0004.77
2023-07-23 22:11:00,SystemResetWarning,0833.7,4.99,000.00,028.6,027.1,000.0,036.8,030.3,21.3,0000.0,0010.99,0005.21,0004.75
2023-07-23 22:12:00,SystemResetWarning,0833.8,4.99,000.00,028.6,027.2,000.0,036.8,030.4,21.2,0000.0,0012.37,0005.20,0004.71
2023-07-23 22:13:00,SystemResetWarning,0833.7,5.00,000.00,028.6,025.9,000.0,036.7,030.2,21.6,0000.0,0012.22,0005.20,0004.70
2023-07-23 22:14:00,SystemResetWarning,0833.8,5.00,000.00,028.6,024.8,000.0,036.7,030.0,21.9,0000.0,0011.34,0005.19,0004.68
2023-07-23 22:15:00,SystemResetWarning,0833.8,5.02,000.00,028.5,025.1,000.0,036.6,030.0,20.8,0000.0,0011.01,0005.19,0004.66
2023-07-23 22:16:00,SystemResetWarning,0833.8,4.98,000.00,028.5,025.5,000.0,036.7,029.9,21.4,0000.0,0011.34,0005.21,0004.66
2023-07-23 22:17:00,SystemResetWarning,0833.8,4.99,000.00,028.5,025.9,000.0,036.7,030.0,22.3,0000.0,0011.86,0005.18,0004.66
2023-07-23 22:18:00,SystemResetWarning,0833.9,5.01,000.00,028.5,026.4,000.0,036.8,030.1,22.3,0000.0,0011.79,0005.18,0004.66
2023-07-23 22:19:00,SystemResetWarning,0833.9,5.01,000.00,028.6,026.8,000.0,036.8,030.2,22.0,0000.0,0011.81,0005.14,0004.66
2023-07-23 22:20:00,SystemResetWarning,0833.9,4.99,000.00,028.6,027.1,000.0,036.8,030.3,21.8,0000.0,0011.23,0005.15,0004.68
2023-07-23 22:21:00,SystemResetWarning,0834.0,4.98,000.00,028.6,026.5,000.0,036.8,030.3,22.7,0000.0,0011.42,0005.13,0004.69
2023-07-23 22:22:00,SystemResetWarning,0834.0,5.01,000.00,028.6,025.0,000.0,036.7,030.0,22.6,0000.0,0012.11,0005.18,0004.71
2023-07-23 22:23:00,SystemResetWarning,0834.1,5.02,000.00,028.5,024.7,000.0,036.6,029.9,22.4,0000.0,0010.63,0005.20,0004.74
2023-07-23 22:24:00,SystemResetWarning,0834.1,5.00,000.00,028.5,025.1,000.0,036.6,029.9,22.6,0000.0,0010.92,0005.19,0004.76
2023-07-23 22:25:00,SystemResetWarning,0834.2,5.00,000.00,028.4,025.5,000.0,036.7,029.9,22.5,0000.0,0011.27,0005.20,0004.76
2023-07-23 22:26:00,SystemResetWarning,0834.2,5.00,000.00,028.4,026.0,000.0,036.7,030.0,22.2,0000.0,0012.20,0005.20,0004.76
2023-07-23 22:27:00,SystemResetWarning,0834.3,5.00,000.00,028.5,026.5,000.0,036.8,030.1,24.9,0000.0,0013.81,0005.20,0004.76
2023-07-23 22:28:00,SystemResetWarning,0834.3,5.00,000.00,028.5,026.9,000.0,036.8,030.3,21.4,0000.0,0015.10,0005.25,0004.78
2023-07-23 22:29:00,SystemResetWarning,0834.5,4.99,000.00,028.6,027.2,000.0,036.8,030.4,21.8,0000.0,0015.80,0005.26,0004.79
2023-07-23 22:30:00,SystemResetWarning,0834.4,5.00,000.00,028.6,026.8,000.0,036.8,030.3,24.7,0000.0,0016.24,0005.27,0004.78
2023-07-23 22:31:00,SystemResetWarning,0834.5,5.00,000.00,028.6,025.1,000.0,036.7,030.1,25.3,0000.0,0016.70,0005.26,0004.77
2023-07-23 22:32:00,SystemResetWarning,0834.5,5.02,000.00,028.5,024.7,000.0,036.6,030.0,23.7,0000.0,0016.25,0005.25,0004.77
2023-07-23 22:33:00,SystemResetWarning,0834.4,5.00,000.00,028.5,025.1,000.0,036.6,029.9,23.2,0000.0,0015.49,0005.19,0004.74
2023-07-23 22:34:00,SystemResetWarning,0834.5,4.99,000.00,028.4,025.5,000.0,036.7,029.8,23.1,0000.0,0015.48,0005.16,0004.72
2023-07-23 22:35:00,SystemResetWarning,0834.8,4.99,000.00,028.4,026.0,000.0,036.7,030.0,21.8,0000.0,0014.98,0005.15,0004.71
2023-07-23 22:36:00,SystemResetWarning,0834.7,5.01,000.00,028.5,026.4,000.0,036.8,030.1,20.4,0000.0,0014.84,0005.12,0004.70
2023-07-23 22:37:00,SystemResetWarning,0834.8,5.01,000.00,028.5,026.8,000.0,036.8,030.2,20.7,0000.0,0014.05,0005.13,0004.70
2023-07-23 22:38:00,SystemResetWarning,0835.1,5.00,000.00,028.6,027.2,000.0,036.8,030.3,21.9,0000.0,0012.10,0005.13,0004.70
2023-07-23 22:39:00,SystemResetWarning,0835.4,4.99,000.00,028.6,027.3,000.0,036.8,030.4,22.1,0000.0,0010.50,0005.12,0004.70
2023-07-23 22:40:00,SystemResetWarning,0835.1,4.99,000.00,028.6,026.1,000.0,036.8,030.3,21.4,0000.0,0011.54,0005.14,0004.70
2023-07-23 22:41:00,SystemResetWarning,0835.2,5.00,000.00,028.6,024.8,000.0,036.7,030.1,19.6,0000.0,0011.88,0005.15,0004.70
2023-07-23 22:42:00,SystemResetWarning,0835.1,5.00,000.00,028.5,024.8,000.0,036.6,030.0,19.3,0000.0,0011.78,0005.20,0004.72
2023-07-23 22:43:00,SystemResetWarning,0835.3,5.02,000.00,028.5,025.2,000.0,036.7,029.9,19.8,0000.0,0011.79,0005.17,0004.68
2023-07-23 22:44:00,SystemResetWarning,0835.0,4.99,000.00,028.5,025.6,000.0,036.7,029.9,20.6,0000.0,0012.10,0005.17,0004.63
2023-07-23 22:45:00,SystemResetWarning,0835.0,5.00,000.00,028.5,026.1,000.0,036.8,030.1,20.3,0000.0,0012.19,0005.16,0004.60
2023-07-23 22:46:00,SystemResetWarning,0835.1,5.00,000.00,028.5,026.5,000.0,036.8,030.2,20.1,0000.0,0012.40,0005.17,0004.59
2023-07-23 22:47:00,SystemResetWarning,0835.2,5.01,000.00,028.6,026.9,000.0,036.8,030.3,20.8,0000.0,0012.58,0005.18,0004.57
2023-07-23 22:48:00,SystemResetWarning,0835.3,5.00,000.00,028.6,027.3,000.0,036.8,030.3,22.1,0000.0,0013.38,0005.17,0004.56
2023-07-23 22:49:00,SystemResetWarning,0835.3,4.98,000.00,028.7,027.0,000.0,036.8,030.4,23.3,0000.0,0013.32,0005.14,0004.53
2023-07-23 22:50:00,SystemResetWarning,0835.2,5.00,000.00,028.6,025.3,000.0,036.7,030.2,21.7,0000.0,0013.16,0005.10,0004.51
2023-07-23 22:51:00,SystemResetWarning,0835.2,5.01,000.00,028.6,024.6,000.0,036.6,030.0,20.9,0000.0,0011.50,0005.08,0004.48
2023-07-23 22:52:00,SystemResetWarning,0835.2,5.02,000.00,028.5,024.9,000.0,036.6,029.9,20.9,0000.0,0010.62,0005.06,0004.45
2023-07-23 22:53:00,SystemResetWarning,0835.3,4.99,000.00,028.5,025.3,000.0,036.7,029.9,19.8,0000.0,0010.06,0005.01,0004.42
2023-07-23 22:54:00,SystemResetWarning,0835.3,5.00,000.00,028.5,025.8,000.0,036.7,030.0,20.6,0000.0,0011.56,0005.06,0004.43
2023-07-23 22:55:00,SystemResetWarning,0835.4,5.00,000.00,028.5,026.2,000.0,036.8,030.1,20.1,0000.0,0012.24,0005.05,0004.45
2023-07-23 22:56:00,SystemResetWarning,0835.5,5.00,000.00,028.5,026.7,000.0,036.8,030.2,20.0,0000.0,0012.89,0005.00,0004.44
2023-07-23 22:57:00,SystemResetWarning,0835.5,4.99,000.00,028.6,027.0,000.0,036.8,030.3,19.9,0000.0,0012.90,0004.94,0004.42
2023-07-23 22:58:00,SystemResetWarning,0835.5,4.99,000.00,028.6,027.3,000.0,036.8,030.4,20.3,0000.0,0013.58,0004.88,0004.40
2023-07-23 22:59:00,SystemResetWarning,0835.5,5.00,000.00,028.7,026.4,000.0,036.8,030.3,20.6,0000.0,0012.83,0004.84,0004.38
